Terrell, TX

6:08 PM CDT on June 26, 2017 (GMT -0500)
Terrell Municipal

Weather History for KTRL - April, 2014

Change the Weather History Date:

Friday, April 18, 2014

  Actual Average (KGVT) Record (KGVT)
Temperature  
Mean Temperature 65 °F -  
Max Temperature 75 °F 73 °F 91 °F (2006)
Min Temperature 55 °F 56 °F 44 °F (2013)
Growing Degree Days 15 (Base 50)    
Moisture  
Dew Point 50 °F    
Average Humidity 63    
Maximum Humidity 93    
Minimum Humidity 32    
Precipitation  
Precipitation 0.00 in - - ()
Sea Level Pressure  
Sea Level Pressure 30.18 in    
Wind  
Wind Speed 4 mph (NE)    
Max Wind Speed 13 mph    
Max Gust Speed -    
Visibility 10 miles    
Events Rain    
Averages and records for this station are not official NWS values.
T = Trace of Precipitation, MM = Missing Value Source: NWS Daily Summary

Daily Weather History Graph

Daily Weather History Graph

Search for Another Location

Airport or City:

Trip Planner

Search our weather history database for the weather conditions in past years. The results will help you decide how hot, cold, wet, or windy it might be!

Date:

Astronomy

Apr. 18, 2014 Rise Set
Actual Time 6:51 AM CDT 7:57 PM CDT
Civil Twilight 6:26 AM CDT 8:22 PM CDT
Nautical Twilight 5:56 AM CDT 8:53 PM CDT
Astronomical Twilight 5:25 AM CDT 9:24 PM CDT
Moon 11:36 PM CDT (4/18) 9:22 AM CDT (4/18)
Length of Visible Light 13h 56m
Length of Day
13h 05m
Waning Gibbous, 87% of the Moon is Illuminated
Apr 18
Waning Gibbous
Apr 22
Last Quarter
Apr 29
New
May 6
First Quarter
May 14
Full

Hourly Weather History & Observations

Time (CDT) Temp. Dew Point Humidity Pressure Visibility Wind Dir Wind Speed Gust Speed Precip Events Conditions
12:53 AM 61.0 °F 53.1 °F 75% 30.19 in 10.0 mi North 3.5 mph - 0.00 in   Overcast
1:53 AM 59.0 °F 54.0 °F 83% 30.19 in 10.0 mi NNW 3.5 mph - 0.00 in Rain Light Rain
2:53 AM 57.0 °F 54.0 °F 89% 30.17 in 10.0 mi Calm Calm - 0.00 in   Overcast
3:53 AM 55.9 °F 54.0 °F 93% 30.18 in 10.0 mi Calm Calm - N/A   Overcast
4:53 AM 57.0 °F 53.1 °F 87% 30.18 in 10.0 mi NNE 5.8 mph - N/A   Overcast
5:53 AM 55.9 °F 52.0 °F 87% 30.18 in 10.0 mi NE 3.5 mph - N/A   Overcast
6:53 AM 55.9 °F 53.1 °F 90% 30.20 in 10.0 mi NE 4.6 mph - N/A   Overcast
7:53 AM 55.9 °F 52.0 °F 87% 30.23 in 10.0 mi ENE 5.8 mph - N/A   Overcast
8:53 AM 59.0 °F 52.0 °F 78% 30.23 in 10.0 mi NE 3.5 mph - N/A   Overcast
9:53 AM 63.0 °F 52.0 °F 67% 30.24 in 10.0 mi NE 4.6 mph - N/A   Overcast
10:53 AM 68.0 °F 50.0 °F 52% 30.24 in 10.0 mi ENE 5.8 mph - N/A   Partly Cloudy
11:53 AM 69.1 °F 48.0 °F 47% 30.23 in 10.0 mi ENE 6.9 mph - N/A   Clear
12:53 PM 71.1 °F 48.9 °F 45% 30.20 in 10.0 mi ENE 12.7 mph - N/A   Clear
1:53 PM 73.0 °F 46.9 °F 39% 30.18 in 10.0 mi NE 9.2 mph - N/A   Clear
2:53 PM 73.9 °F 45.0 °F 35% 30.17 in 10.0 mi NNE 6.9 mph - N/A   Clear
3:53 PM 73.9 °F 45.0 °F 35% 30.14 in 10.0 mi East 8.1 mph - N/A   Clear
4:53 PM 75.0 °F 43.0 °F 32% 30.12 in 10.0 mi Variable 4.6 mph - N/A   Clear
5:53 PM 75.0 °F 44.1 °F 33% 30.12 in 10.0 mi Variable 3.5 mph - N/A   Clear
6:53 PM 73.9 °F 44.1 °F 34% 30.11 in 10.0 mi NE 5.8 mph - N/A   Clear
7:53 PM 70.0 °F 45.0 °F 41% 30.12 in 10.0 mi Calm Calm - N/A   Clear
8:53 PM 63.0 °F 48.9 °F 60% 30.14 in 10.0 mi Calm Calm - N/A   Clear
9:53 PM 57.9 °F 51.1 °F 78% 30.15 in 10.0 mi NE 3.5 mph - N/A   Clear
10:53 PM 57.9 °F 51.1 °F 78% 30.15 in 10.0 mi NNE 4.6 mph - N/A   Clear
11:53 PM 57.0 °F 50.0 °F 77% 30.16 in 10.0 mi Calm Calm - N/A   Clear